| time (UTC) | temp F | wind direction | speed MPH | gust MPH | rain 1hr in | rain 24hr in | rain mn in | humidity % | barometer mb |
| 20260905233003 | 74 | 149 | 5.0 | 9.0 | 0.00 | 0.00 | 0.00 | 82 | 1017.5 |
| 20260905232003 | 73 | 278 | 0.0 | 3.0 | 0.00 | 0.00 | 0.00 | 74 | 1017.5 |
| 20260905231003 | 73 | 105 | 1.0 | 5.0 | 0.00 | 0.00 | 0.00 | 75 | 1017.5 |
| 20260905230005 | 72 | 92 | 0.0 | 5.0 | 0.00 | 0.00 | 0.00 | 75 | 1017.8 |
| 20260905224004 | 72 | 272 | 0.0 | 6.0 | 0.00 | 0.00 | 0.00 | 74 | 1017.8 |
| 20260905223003 | 72 | 316 | 3.0 | 9.0 | 0.00 | 0.00 | 0.00 | 76 | 1017.9 |
| 20260905222005 | 74 | 284 | 0.0 | 3.0 | 0.00 | 0.00 | 0.00 | 76 | 1017.6 |
| 20260905221003 | 73 | 47 | 1.0 | 9.0 | 0.00 | 0.00 | 0.00 | 77 | 1017.6 |
| 20260905220003 | 74 | 37 | 3.0 | 5.0 | 0.00 | 0.00 | 0.00 | 76 | 1017.6 |
| 20260905215003 | 74 | 74 | 1.0 | 9.0 | 0.00 | 0.00 | 0.00 | 76 | 1017.8 |
| 20260905214004 | 74 | 7 | 3.0 | 9.0 | 0.00 | 0.00 | 0.00 | 76 | 1018.3 |
| 20260905213005 | 73 | 12 | 3.0 | 13.0 | 0.00 | 0.00 | 0.00 | 77 | 1018.4 |
| 20260905212004 | 76 | 145 | 2.0 | 14.0 | 0.00 | 0.00 | 0.00 | 78 | 1017.9 |
| 20260905211003 | 76 | 159 | 5.0 | 15.0 | 0.00 | 0.00 | 0.00 | 79 | 1017.6 |
| 20260905204003 | 78 | 163 | 6.0 | 16.0 | 0.00 | 0.00 | 0.00 | 75 | 1017.8 |
| 20260905203004 | 79 | 157 | 12.0 | 16.0 | 0.00 | 0.00 | 0.00 | 72 | 1018.1 |
| 20260905201004 | 80 | 150 | 7.0 | 17.0 | 0.00 | 0.00 | 0.00 | 68 | 1018.2 |
| 20260905200004 | 79 | 207 | 3.0 | 15.0 | 0.00 | 0.00 | 0.00 | 68 | 1018.5 |
| 20260905194004 | 80 | 156 | 2.0 | 8.0 | 0.00 | 0.00 | 0.00 | 67 | 1018.7 |
| 20260905193005 | 79 | 319 | 4.0 | 5.0 | 0.00 | 0.00 | 0.00 | 65 | 1018.8 |
| 20260905192004 | 76 | 180 | 1.0 | 7.0 | 0.00 | 0.00 | 0.00 | 67 | 1018.9 |
| 20260905191004 | 76 | 195 | 3.0 | 6.0 | 0.00 | 0.00 | 0.00 | 71 | 1019.2 |
| 20260905190004 | 78 | 253 | 5.0 | 8.0 | 0.00 | 0.00 | 0.00 | 72 | 1019.5 |
| 20260905185004 | 76 | 165 | 3.0 | 8.0 | 0.00 | 0.00 | 0.00 | 75 | 1019.8 |
| 20260905184003 | 77 | 176 | 2.0 | 8.0 | 0.00 | 0.00 | 0.00 | 74 | 1019.9 |
| 20260905183003 | 77 | 189 | 1.0 | 7.0 | 0.00 | 0.00 | 0.00 | 70 | 1019.9 |
| 20260905182004 | 77 | 292 | 3.0 | 6.0 | 0.00 | 0.00 | 0.00 | 70 | 1020.0 |
| 20260905181004 | 76 | 239 | 2.0 | 7.0 | 0.00 | 0.00 | 0.00 | 71 | 1020.3 |
| 20260905180003 | 76 | 194 | 3.0 | 9.0 | 0.00 | 0.00 | 0.00 | 73 | 1020.2 |
| 20260905175004 | 76 | 218 | 2.0 | 5.0 | 0.00 | 0.00 | 0.00 | 72 | 1020.4 |
| 20260905174004 | 76 | 233 | 1.0 | 9.0 | 0.00 | 0.00 | 0.00 | 73 | 1020.6 |
| 20260905173004 | 74 | 249 | 2.0 | 5.0 | 0.00 | 0.00 | 0.00 | 72 | 1020.6 |
| 20260905172003 | 73 | 293 | 2.0 | 7.0 | 0.00 | 0.00 | 0.00 | 73 | 1020.8 |
| 20260905171003 | 73 | 218 | 3.0 | 6.0 | 0.00 | 0.00 | 0.00 | 74 | 1020.6 |
| 20260905170004 | 71 | 317 | 0.0 | 5.0 | 0.00 | 0.00 | 0.00 | 76 | 1020.9 |
| 20260905165003 | 72 | 69 | 2.0 | 7.0 | 0.00 | 0.00 | 0.00 | 79 | 1021.0 |
| 20260905164003 | 73 | 280 | 4.0 | 6.0 | 0.00 | 0.00 | 0.00 | 76 | 1021.1 |
| 20260905163004 | 71 | 117 | 2.0 | 6.0 | 0.00 | 0.00 | 0.00 | 77 | 1021.2 |
| 20260905162003 | 71 | 150 | 1.0 | 5.0 | 0.00 | 0.00 | 0.00 | 76 | 1021.2 |
| 20260905161004 | 72 | 12 | 1.0 | 3.0 | 0.00 | 0.00 | 0.00 | 77 | 1021.5 |
| 20260905160003 | 68 | 171 | 1.0 | 6.0 | 0.00 | 0.00 | 0.00 | 81 | 1021.5 |
| 20260905155004 | 69 | 339 | 2.0 | 6.0 | 0.00 | 0.00 | 0.00 | 83 | 1021.4 |
| 20260905154003 | 69 | 334 | 4.0 | 6.0 | 0.00 | 0.00 | 0.00 | 86 | 1021.5 |
| 20260905152004 | 69 | 26 | 2.0 | 6.0 | 0.00 | 0.00 | 0.00 | 85 | 1021.4 |
| 20260905150004 | 69 | 2 | 2.0 | 3.0 | 0.00 | 0.00 | 0.00 | 84 | 1021.1 |
| 20260905145004 | 68 | 1 | 3.0 | 5.0 | 0.00 | 0.00 | 0.00 | 84 | 1021.0 |
| 20260905144003 | 69 | 87 | 1.0 | 6.0 | 0.00 | 0.00 | 0.00 | 86 | 1021.2 |
| 20260905143003 | 67 | 82 | 1.0 | 5.0 | 0.00 | 0.00 | 0.00 | 87 | 1021.1 |
| 20260905142005 | 67 | 52 | 0.0 | 3.0 | 0.00 | 0.00 | 0.00 | 88 | 1021.0 |
| 20260905141003 | 66 | 52 | 1.0 | 3.0 | 0.00 | 0.00 | 0.00 | 90 | 1020.7 |
| 20260905140004 | 66 | 85 | 1.0 | 3.0 | 0.00 | 0.00 | 0.00 | 92 | 1020.9 |
| 20260905134004 | 65 | 11 | 1.0 | 2.0 | 0.00 | 0.00 | 0.00 | 94 | 1020.8 |
| 20260905133003 | 65 | 145 | 0.0 | 2.0 | 0.00 | 0.00 | 0.00 | 95 | 1020.7 |
| 20260905132004 | 64 | 270 | 0.0 | 2.0 | 0.00 | 0.00 | 0.00 | 95 | 1020.7 |
| 20260905131004 | 64 | 286 | 0.0 | 3.0 | 0.00 | 0.00 | 0.00 | 95 | 1020.6 |
| 20260905125003 | 64 | 316 | 0.0 | 5.0 | 0.00 | 0.00 | 0.00 | 94 | 1020.3 |
| 20260905124004 | 65 | 342 | 2.0 | 3.0 | 0.00 | 0.00 | 0.00 | 93 | 1020.5 |
| 20260905123004 | 65 | 36 | 2.0 | 2.0 | 0.00 | 0.00 | 0.00 | 94 | 1020.5 |
| 20260905122004 | 65 | 90 | 1.0 | 2.0 | 0.00 | 0.00 | 0.00 | 94 | 1020.4 |
| 20260905121004 | 65 | 136 | 1.0 | 7.0 | 0.00 | 0.00 | 0.00 | 94 | 1020.4 |
| 20260905120003 | 65 | 78 | 2.0 | 5.0 | 0.00 | 0.00 | 0.00 | 94 | 1020.3 |
| 20260905114004 | 64 | 74 | 2.0 | 3.0 | 0.00 | 0.00 | 0.00 | 94 | 1020.0 |
| 20260905113004 | 64 | 92 | 1.0 | 3.0 | 0.00 | 0.00 | 0.00 | 94 | 1019.9 |
| 20260905112004 | 64 | 70 | 1.0 | 3.0 | 0.00 | 0.00 | 0.00 | 94 | 1019.9 |
| 20260905111006 | 64 | 53 | 2.0 | 3.0 | 0.00 | 0.00 | 0.00 | 95 | 1020.0 |
| 20260905110004 | 64 | 47 | 1.0 | 3.0 | 0.00 | 0.00 | 0.00 | 95 | 1020.1 |
| 20260905103005 | 64 | 5 | 1.0 | 3.0 | 0.00 | 0.00 | 0.00 | 96 | 1020.0 |
| 20260905102003 | 64 | 342 | 2.0 | 3.0 | 0.00 | 0.00 | 0.00 | 96 | 1020.3 |
| 20260905101004 | 64 | 4 | 1.0 | 5.0 | 0.00 | 0.00 | 0.00 | 96 | 1020.3 |
| 20260905100005 | 64 | 279 | 2.0 | 3.0 | 0.00 | 0.00 | 0.00 | 95 | 1020.2 |
| 20260905095004 | 65 | 341 | 2.0 | 3.0 | 0.00 | 0.00 | 0.00 | 95 | 1020.4 |
| 20260905094004 | 65 | 34 | 1.0 | 3.0 | 0.00 | 0.00 | 0.00 | 95 | 1020.0 |
| 20260905091004 | 65 | 109 | 0.0 | 2.0 | 0.00 | 0.00 | 0.00 | 94 | 1020.4 |
| 20260905090004 | 65 | 112 | 0.0 | 3.0 | 0.00 | 0.00 | 0.00 | 94 | 1020.1 |
| 20260905085004 | 65 | 91 | 1.0 | 3.0 | 0.00 | 0.00 | 0.00 | 94 | 1020.0 |
| 20260905084004 | 65 | 98 | 1.0 | 3.0 | 0.00 | 0.00 | 0.00 | 94 | 1020.1 |
| 20260905083004 | 64 | 72 | 2.0 | 3.0 | 0.00 | 0.00 | 0.00 | 94 | 1020.0 |
| 20260905082004 | 65 | 113 | 1.0 | 3.0 | 0.00 | 0.00 | 0.00 | 94 | 1020.1 |
| 20260905081004 | 65 | 83 | 2.0 | 2.0 | 0.00 | 0.00 | 0.00 | 95 | 1020.0 |
| 20260905080004 | 65 | 105 | 1.0 | 3.0 | 0.00 | 0.00 | 0.00 | 95 | 1020.1 |
| 20260905075004 | 65 | 148 | 0.0 | 3.0 | 0.00 | 0.00 | 0.00 | 95 | 1020.2 |
| 20260905074005 | 65 | 45 | 0.0 | 3.0 | 0.00 | 0.00 | 0.00 | 95 | 1020.2 |
| 20260905073004 | 65 | 298 | 1.0 | 3.0 | 0.00 | 0.00 | 0.00 | 94 | 1020.1 |
| 20260905072004 | 66 | 290 | 1.0 | 3.0 | 0.00 | 0.00 | 0.00 | 92 | 1020.1 |
| 20260905064004 | 67 | 79 | 1.0 | 3.0 | 0.00 | 0.00 | 0.00 | 91 | 1020.7 |
| 20260905063006 | 67 | 142 | 2.0 | 3.0 | 0.00 | 0.00 | 0.00 | 91 | 1020.5 |
| 20260905062003 | 67 | 92 | 1.0 | 3.0 | 0.00 | 0.00 | 0.00 | 91 | 1020.7 |
| 20260905061005 | 67 | 88 | 0.0 | 3.0 | 0.00 | 0.00 | 0.00 | 91 | 1020.8 |
| 20260905055005 | 68 | 113 | 2.0 | 6.0 | 0.00 | 0.00 | 0.00 | 91 | 1020.6 |
| 20260905052004 | 68 | 157 | 3.0 | 7.0 | 0.00 | 0.00 | 0.00 | 91 | 1020.6 |
| 20260905051005 | 67 | 124 | 1.0 | 3.0 | 0.00 | 0.00 | 0.00 | 92 | 1020.7 |
| 20260905045004 | 68 | 254 | 1.0 | 6.0 | 0.00 | 0.00 | 0.00 | 92 | 1020.7 |
| 20260905043004 | 69 | 260 | 2.0 | 7.0 | 0.00 | 0.00 | 0.00 | 88 | 1020.7 |
| 20260905041005 | 70 | 144 | 3.0 | 6.0 | 0.00 | 0.00 | 0.00 | 87 | 1020.5 |
| 20260905040004 | 70 | 345 | 1.0 | 6.0 | 0.00 | 0.00 | 0.00 | 87 | 1020.4 |
| 20260905033004 | 70 | 124 | 1.0 | 10.0 | 0.00 | 0.00 | 0.00 | 84 | 1020.5 |
| 20260905032004 | 70 | 163 | 1.0 | 14.0 | 0.00 | 0.00 | 0.00 | 85 | 1020.5 |
| 20260905030004 | 70 | 115 | 4.0 | 13.0 | 0.00 | 0.00 | 0.00 | 82 | 1020.3 |
| 20260905025006 | 70 | 181 | 3.0 | 14.0 | 0.00 | 0.00 | 0.00 | 84 | 1020.2 |
| 20260905024004 | 70 | 128 | 4.0 | 16.0 | 0.00 | 0.00 | 0.00 | 83 | 1020.2 |
| 20260905023004 | 71 | 151 | 7.0 | 16.0 | 0.00 | 0.00 | 0.00 | 83 | 1020.1 |
| 20260905022006 | 71 | 143 | 7.0 | 15.0 | 0.00 | 0.00 | 0.00 | 79 | 1019.8 |
| 20260905021004 | 71 | 152 | 8.0 | 15.0 | 0.00 | 0.00 | 0.00 | 77 | 1019.8 |
| 20260905014005 | 72 | 144 | 3.0 | 17.0 | 0.00 | 0.00 | 0.00 | 82 | 1019.4 |
| 20260905013004 | 73 | 133 | 7.0 | 14.0 | 0.00 | 0.00 | 0.00 | 80 | 1019.3 |
| 20260905012005 | 73 | 114 | 9.0 | 18.0 | 0.00 | 0.00 | 0.00 | 80 | 1019.6 |
| 20260905010004 | 73 | 151 | 4.0 | 13.0 | 0.00 | 0.00 | 0.00 | 84 | 1019.2 |
| 20260905005004 | 73 | 181 | 5.0 | 14.0 | 0.00 | 0.00 | 0.00 | 85 | 1019.1 |
| 20260905002005 | 76 | 137 | 3.0 | 16.0 | 0.00 | 0.00 | 0.00 | 80 | 1018.5 |
| 20260905000006 | 77 | 148 | 6.0 | 16.0 | 0.00 | 0.00 | 0.00 | 78 | 1018.2 |
| 20260904235006 | 77 | 182 | 6.0 | 17.0 | 0.00 | 0.00 | 0.00 | 76 | 1017.9 |
| 20260904234005 | 77 | 175 | 7.0 | 16.0 | 0.00 | 0.00 | 0.00 | 76 | 1017.9 |